This demonstration page uses our WeatherBlox Daily Observations layout. Learn more.

Left ArrowRight Arrow

Hourly Observations for December 1, 2021

Temp ( °F °C ) Dew Point ( °F °C ) Humidity (%) Winds ( mph kmh ) Pressure ( in mb ) Visibility ( mi km ) Precip ( " mm )
6:30 am 06:30 Cloudy 32 undefined 30 -1 93 93 N N/A 30.14 1021 10 16 N/A
6:45 am 06:45 Cloudy 37 3 30 -1 75 75 N N/A 30.13 1020 10 16 N/A
7:45 am 07:45 Cloudy 36 2 32 undefined 87 87 N N/A 30.12 1020 7 11 N/A
8:45 am 08:45 Cloudy with Mist and Fog 36 2 34 1 93 93 N N/A 30.13 1020 6 10 N/A
9:45 am 09:45 Cloudy with Mist and Fog 37 3 36 2 93 93 N N/A 30.09 1019 6 10 N/A
10:45 am 10:45 Cloudy with Mist and Fog 41 5 37 3 87 87 N N/A 30.04 1017 6 10 N/A
11:45 am 11:45 Cloudy with Mist and Fog 43 6 39 4 87 87 ESE 5 7 30.01 1016 6 10 N/A
12:45 pm 12:45 Cloudy with Mist and Fog 46 8 41 5 82 82 SE 9 15 29.92 1013 6 10 N/A
1:19 pm 13:19 Cloudy with Light Rain 46 8 41 5 82 82 undefined N/A 29.93 1014 3 5 N/A
1:29 pm 13:29 Cloudy with Light Rain 46 8 41 5 82 82 undefined N/A 29.95 1014 2 3 N/A
1:36 pm 13:36 Cloudy with Light Rain 45 7 41 5 87 87 undefined N/A 29.96 1014 2 3 N/A
1:45 pm 13:45 Cloudy with Light Rain 45 7 41 5 87 87 undefined N/A 29.94 1014 4 6 N/A
2:45 pm 14:45 Cloudy with Mist and Fog 45 7 41 5 87 87 N N/A 29.91 1013 4 6 N/A
3:45 pm 15:45 Mostly Cloudy 46 8 45 7 93 93 SSE 3 6 29.87 1012 7 11 N/A
4:45 pm 16:45 Cloudy 46 8 45 7 93 93 SSW 8 13 29.91 1013 10 16 N/A
5:05 pm 17:05 Cloudy 46 8 45 7 93 93 SW 5 7 29.92 1013 10 16 N/A
5:45 pm 17:45 Cloudy 45 7 43 6 93 93 N N/A 29.94 1014 10 16 N/A
6:45 pm 18:45 Cloudy 46 8 45 7 93 93 SW 5 7 29.94 1014 10 16 N/A
7:45 pm 19:45 Cloudy 48 9 46 8 94 94 SW 8 13 29.95 1014 7 11 N/A
8:25 pm 20:25 Mostly Cloudy with Mist and Fog 46 8 45 7 93 93 SW 6 9 29.95 1014 5 8 N/A
8:45 pm 20:45 Partly Cloudy with Mist and Fog 45 7 43 6 93 93 SSW 7 11 29.95 1014 3 5 N/A
9:45 pm 21:45 Mostly Cloudy with Mist and Fog 46 8 46 8 100 100 SW 8 13 29.94 1014 5 8 N/A

Powered by AerisWeather